[[{"header":{"parameterUnit":"m.s-1","parameterCategory":1,"la1":30.2991,"la2":30.254,"lo1":-89.0895,"lo2":-89.0444,"dy":0.0017,"dx":0.0017,"nx":28,"ny":28,"refTime":"2024-12-16T09:00:00:Z","depth":0,"parameterNumber":2,"parameterNumberName":"U-component_of_WINDS"},"data":[0,0,0,0,0,0,0,0,0,0,0,0,0,0,0,0,0,0,0,0,0,0,0,0,0,0,0,0,0,0,0,0,0,0,0,0,0,0,0,0,0,0,0,0,0,0,0,0,0,0,0,0,0,0,0,0,0,0,-1.9218,-1.9218,0,-1.9214,-1.9214,-1.9213,-1.9168,-1.9167,-1.9166,-1.9165,-1.9159,-1.916,-1.9161,0,0,0,0,0,0,0,0,0,0,0,0,0,-1.9189,-1.9189,-1.9218,-1.9218,-1.9218,-1.9214,-1.9213,-1.9213,-1.9169,-1.9167,-1.9166,-1.9164,-1.9159,-1.916,-1.9161,0,0,0,0,0,0,0,0,0,0,0,0,0,-1.9195,-1.919,-1.9218,-1.9195,-1.9193,-1.9214,-1.9213,-1.9213,-1.9169,-1.9167,-1.9165,-1.9164,-1.9159,-1.916,-1.9161,-1.9203,0,0,-1.9165,-1.9166,0,0,0,0,0,0,0,0,-1.9194,-1.9196,-1.9199,-1.9197,-1.9194,-1.919,-1.9201,-1.921,-1.9169,-1.9178,-1.9165,-1.9163,-1.9171,-1.9171,-1.9174,-1.9203,-1.9202,-1.9165,-1.9166,-1.9167,-1.9167,0,0,0,0,0,0,0,-1.9194,-1.9196,-1.9216,-1.9199,-1.9196,-1.9185,-1.9184,-1.9202,-1.9184,-1.9177,-1.9174,-1.9174,-1.9169,-1.9172,-1.9173,-1.9202,-1.9165,-1.9166,-1.9167,-1.9168,-1.9267,-1.9268,0,0,0,0,0,0,-1.9197,-1.9196,-1.9216,-1.9216,-1.919,-1.9187,-1.9186,-1.9193,-1.9183,-1.918,-1.9175,-1.9172,-1.9171,-1.9172,-1.9173,-1.9221,-1.9167,-1.9168,-1.9169,-1.9265,-1.9267,-1.9269,0,0,0,0,0,0,-1.9196,-1.9199,-1.9217,-1.9205,-1.9206,-1.9189,-1.9198,-1.9194,-1.9197,-1.9182,-1.9179,-1.9182,-1.917,-1.9171,-1.9196,-1.922,-1.9169,-1.917,-1.9263,-1.9265,-1.9268,-1.9318,0,0,0,0,0,0,-1.9196,-1.9199,-1.9214,-1.9206,-1.9207,-1.924,-1.9199,-1.9195,-1.9199,-1.9195,-1.9187,-1.9185,-1.9168,-1.9194,-1.9197,-1.9221,-1.9171,-1.926,-1.9264,-1.9267,-1.9314,-1.9322,-1.9329,0,0,0,0,0,-1.9195,-1.9228,-1.9215,-1.9218,-1.9226,-1.9241,-1.9242,-1.9223,-1.9202,-1.9217,-1.9208,-1.9185,-1.9218,-1.9197,-1.92,-1.9225,-1.9259,-1.9263,-1.9267,-1.9311,-1.932,-1.9329,0,0,0,0,0,0,-1.9239,-1.9227,-1.9212,-1.9244,-1.9244,-1.9234,-1.9252,-1.9234,-1.924,-1.9235,-1.9211,-1.921,-1.9239,-1.9235,-1.9212,-1.9265,-1.9234,-1.9239,-1.9266,-1.9276,-1.9283,-1.9282,-1.9172,0,0,0,0,0,-1.9253,-1.9266,-1.9255,-1.9284,-1.9285,-1.9269,-1.9275,-1.9261,-1.926,-1.9259,-1.9252,-1.9252,-1.9262,-1.9269,-1.9278,-1.9314,-1.9312,-1.9333,-1.934,-1.9346,-1.935,-1.9369,-1.9378,-1.9282,-1.9282,-1.9282,0,0,-1.9281,-1.9276,-1.9285,-1.9293,-1.9291,-1.9306,-1.9269,-1.9286,-1.9296,-1.9262,-1.9284,-1.928,-1.9278,-1.9309,-1.9323,-1.9307,-1.9377,-1.9352,-1.9357,-1.9357,-1.9374,-1.9383,-1.9392,-1.9285,-1.9285,-1.9284,0,0,-1.9338,-1.9336,-1.936,-1.936,-1.9359,-1.9349,-1.9355,-1.9348,-1.9343,-1.9367,-1.9341,-1.9354,-1.9372,-1.9372,-1.9374,-1.9436,-1.9414,-1.944,-1.9477,-1.9496,-1.9504,-1.951,-1.9531,-1.9539,-1.9444,-1.9444,-1.9444,0,-1.9373,-1.9394,-1.9375,-1.9394,-1.9398,-1.9369,-1.9394,-1.9394,-1.9396,-1.9399,-1.9382,-1.9405,-1.9402,-1.9433,-1.9448,-1.9451,-1.9457,-1.9439,-1.9504,-1.9511,-1.9517,-1.9536,-1.9544,-1.9447,-1.9447,-1.9446,-1.9446,0,-1.9436,-1.9451,-1.9471,-1.9474,-1.9481,-1.9502,-1.9487,-1.9497,-1.9483,-1.9475,-1.9499,-1.9495,-1.9503,-1.9509,-1.9496,-1.9539,-1.9529,-1.9509,-1.9476,-1.9529,-1.9547,-1.9554,-1.9451,-1.945,-1.9449,-1.9448,0,0,-1.9517,-1.9513,-1.952,-1.9522,-1.952,-1.9531,-1.9552,-1.956,-1.9569,-1.9572,-1.9588,-1.9606,-1.9588,-1.959,-1.9577,-1.9594,-1.9642,-1.9571,-1.9571,-1.9583,-1.9689,-1.9703,-1.9712,-1.963,-1.9631,-1.9632,-1.9689,0,-1.9572,-1.9607,-1.9593,-1.9629,-1.9643,-1.9618,-1.9636,-1.9637,-1.9631,-1.9642,-1.9635,-1.9648,-1.9623,-1.9625,-1.9641,-1.9633,-1.9663,-1.9629,-1.9644,-1.9644,-1.9643,-1.9721,-1.9735,-1.9789,-1.9696,-1.9697,-1.9698,0,-1.9639,-1.9646,-1.9685,-1.9682,-1.9687,-1.9704,-1.9711,-1.9722,-1.9724,-1.9718,-1.9723,-1.9706,-1.9727,-1.9697,-1.9725,-1.9702,-1.9708,-1.9706,-1.9707,-1.9706,-1.9672,-1.972,-1.9805,-1.9813,-1.9709,-1.9708,-1.9707,0,-1.9694,-1.9713,-1.9739,-1.9741,-1.9739,-1.9751,-1.9751,-1.975,-1.9757,-1.9763,-1.9767,-1.9776,-1.9781,-1.9788,-1.9774,-1.9754,-1.9804,-1.9773,-1.9799,-1.98,-1.9808,-1.9807,-1.9894,-1.9816,-1.9816,-1.9816,-1.9816,0,-1.9755,-1.9779,-1.9763,-1.9778,-1.9805,-1.9789,-1.9816,-1.9813,-1.9813,-1.9828,-1.9807,-1.9821,-1.9803,-1.9816,-1.9806,-1.983,-1.9833,-1.9828,-1.9824,-1.9829,-1.9829,-1.983,-1.9825,-1.9818,-1.9817,-1.9817,-1.9817,0,-1.9818,-1.9809,-1.9835,-1.9832,-1.9832,-1.9851,-1.9848,-1.9862,-1.9856,-1.9875,-1.9878,-1.9868,-1.9882,-1.987,-1.9883,-1.9876,-1.9908,-1.9901,-1.9908,-1.9905,-1.9931,-1.9928,-2.0019,-2.0029,-1.9947,-1.9948,-1.9948,0,-1.9856,-1.9874,-1.9874,-1.9883,-1.9884,-1.9898,-1.9905,-1.9891,-1.9899,-1.9904,-1.9918,-1.993,-1.9939,-1.9962,-1.9955,-1.9965,-1.9957,-1.9988,-1.9958,-1.9961,-1.9955,-1.9953,-1.9955,-1.9993,-1.9994,-1.9995,-1.9996,0,-1.9925,-1.992,-1.9931,-1.9942,-1.9951,-1.9958,-1.9964,-1.9972,-1.9958,-1.9969,-1.9983,-1.999,-2.0005,-2.0017,-2.0025,-2.0025,-2.0008,-2.0006,-2.0012,-2.0015,-2.0018,-2.0015,-1.9922,-2.0003,-2.0002,-2.0002,-2.0001,-2.0001,-1.9975,-1.9991,-1.9993,-2.0007,-2.001,-2.0017,-2.003,-2.0027,-2.0039,-2.005,-2.0041,-2.0059,-2.0061,-2.0071,-2.0073,-2.0086,-2.0072,-2.0082,-2.0084,-2.0086,-2.0089,-2.0018,-2.0087,-2.0087,-2.0087,-2.0087,-2.0087,0,-2.0041,-2.0043,-2.0056,-2.0065,-2.0076,-2.0062,-2.0068,-2.0078,-2.0094,-2.0098,-2.0108,-2.0125,-2.0138,-2.0133,-2.0144,-2.0156,-2.0148,-2.0159,-2.0157,-2.0157,-2.0101,-2.0093,-2.0165,-2.0165,-2.0165,-2.0165,-2.0165,-2.0165,-2.0077,-2.0102,-2.0098,-2.0125,-2.0126,-2.0144,-2.0148,-2.0154,-2.0158,-2.0178,-2.0189,-2.0187,-2.0188,-2.0199,-2.021,-2.0209,-2.0213,-2.0226,-2.0222,-2.0168,-2.0161,-2.0153,-2.0146,-2.0228,-2.0228,-2.0276,-2.0277,-2.0277]},{"header":{"parameterUnit":"m.s-1","parameterCategory":1,"la1":30.2991,"la2":30.254,"lo1":-89.0895,"lo2":-89.0444,"dy":0.0017,"dx":0.0017,"nx":28,"ny":28,"refTime":"2024-12-16T09:00:00:Z","depth":0,"parameterNumber":3,"parameterNumberName":"V-component_of_WINDS"},"data":[0,0,0,0,0,0,0,0,0,0,0,0,0,0,0,0,0,0,0,0,0,0,0,0,0,0,0,0,0,0,0,0,0,0,0,0,0,0,0,0,0,0,0,0,0,0,0,0,0,0,0,0,0,0,0,0,0,0,0.1842,0.1842,0,0.1833,0.1833,0.1833,0.1844,0.1844,0.1845,0.1845,0.1834,0.1833,0.1832,0,0,0,0,0,0,0,0,0,0,0,0,0,0.1869,0.1869,0.1842,0.1842,0.1842,0.1833,0.1833,0.1833,0.1844,0.1844,0.1845,0.1845,0.1834,0.1833,0.1832,0,0,0,0,0,0,0,0,0,0,0,0,0,0.1858,0.1868,0.1842,0.1847,0.1847,0.1833,0.1833,0.1833,0.1844,0.1844,0.1845,0.1846,0.1834,0.1833,0.1832,0.1813,0,0,0.1829,0.1828,0,0,0,0,0,0,0,0,0.1859,0.1857,0.1846,0.1846,0.1847,0.184,0.1838,0.1826,0.1844,0.1845,0.1845,0.1846,0.1835,0.1834,0.1831,0.1812,0.1812,0.1829,0.1828,0.1828,0.1827,0,0,0,0,0,0,0,0.186,0.1858,0.1839,0.1846,0.1846,0.1849,0.1848,0.1836,0.1837,0.1845,0.1846,0.1845,0.1835,0.1832,0.1831,0.1812,0.1829,0.1828,0.1827,0.1827,0.1779,0.1778,0,0,0,0,0,0,0.186,0.1858,0.1839,0.1838,0.1855,0.1848,0.1847,0.1842,0.1837,0.1837,0.1844,0.1845,0.1833,0.1832,0.183,0.1808,0.1828,0.1827,0.1826,0.1779,0.1778,0.1778,0,0,0,0,0,0,0.1861,0.1858,0.1839,0.1849,0.1846,0.1847,0.1841,0.1841,0.1838,0.1836,0.1836,0.184,0.1834,0.1832,0.1818,0.1808,0.1826,0.1825,0.178,0.1779,0.1778,0.1764,0,0,0,0,0,0,0.1861,0.1858,0.1851,0.1848,0.1846,0.1827,0.184,0.1841,0.1836,0.1837,0.1833,0.1832,0.1834,0.1819,0.1817,0.1807,0.1824,0.1781,0.178,0.1778,0.1765,0.1762,0.176,0,0,0,0,0,0.1862,0.1847,0.1851,0.1848,0.1837,0.1826,0.1825,0.1828,0.1835,0.1828,0.1827,0.1833,0.181,0.1818,0.1815,0.1805,0.1781,0.178,0.1779,0.1766,0.1763,0.176,0,0,0,0,0,0,0.1847,0.1846,0.1851,0.1834,0.183,0.1828,0.1819,0.1824,0.1817,0.1819,0.1822,0.1821,0.1806,0.1804,0.1813,0.1787,0.1797,0.1795,0.1788,0.1785,0.1783,0.1783,0.1824,0,0,0,0,0,0.1842,0.1834,0.1834,0.1819,0.1817,0.1818,0.1814,0.1817,0.1813,0.1811,0.1809,0.1804,0.1796,0.1791,0.1783,0.1765,0.1765,0.1757,0.1755,0.1753,0.1751,0.1742,0.1739,0.1773,0.1773,0.1773,0,0,0.1831,0.183,0.1824,0.1816,0.1813,0.1805,0.1817,0.1807,0.18,0.1809,0.1796,0.1795,0.179,0.1774,0.1767,0.1772,0.1741,0.1751,0.1749,0.1748,0.174,0.1737,0.1734,0.1772,0.1772,0.1772,0,0,0.1807,0.1805,0.1793,0.179,0.1787,0.1788,0.1785,0.1783,0.1783,0.177,0.1777,0.1769,0.1755,0.1752,0.1748,0.1725,0.1729,0.1722,0.1709,0.17,0.1698,0.1695,0.1687,0.1684,0.172,0.172,0.172,0,0.1793,0.1781,0.1786,0.1776,0.1772,0.1781,0.1769,0.1766,0.176,0.1757,0.1763,0.1747,0.1744,0.1728,0.1723,0.1719,0.1716,0.1722,0.1698,0.1695,0.1693,0.1685,0.1682,0.1719,0.1719,0.1719,0.172,0,0.1764,0.1756,0.1747,0.1742,0.1737,0.1726,0.173,0.1724,0.1728,0.1729,0.1716,0.1714,0.1706,0.1703,0.1706,0.1688,0.1691,0.1697,0.1707,0.1689,0.1682,0.1679,0.1718,0.1718,0.1719,0.1719,0,0,0.1728,0.1728,0.1725,0.1723,0.1721,0.1714,0.1704,0.1698,0.1694,0.1689,0.1681,0.167,0.1676,0.1672,0.1675,0.1668,0.165,0.1675,0.1675,0.1671,0.1631,0.1626,0.1622,0.1654,0.1653,0.1653,0.1631,0,0.1704,0.1687,0.1692,0.1675,0.1668,0.1677,0.1668,0.1666,0.1667,0.1661,0.1662,0.1654,0.1663,0.166,0.1654,0.1654,0.1642,0.1655,0.1646,0.1645,0.1646,0.1618,0.1613,0.1592,0.1628,0.1628,0.1627,0,0.1673,0.167,0.1652,0.1652,0.1649,0.1641,0.1637,0.1631,0.1629,0.163,0.1627,0.1632,0.1622,0.1633,0.162,0.1629,0.1625,0.1625,0.1624,0.1623,0.1635,0.1616,0.1585,0.1582,0.1623,0.1623,0.1624,0,0.1649,0.164,0.1628,0.1627,0.1627,0.1621,0.1621,0.1619,0.1616,0.1612,0.161,0.1604,0.1601,0.1597,0.16,0.1608,0.1587,0.1598,0.1587,0.1587,0.1582,0.1582,0.155,0.158,0.158,0.158,0.158,0,0.1621,0.161,0.1618,0.161,0.1599,0.1605,0.1593,0.1594,0.1593,0.1586,0.1593,0.1587,0.1592,0.1586,0.1589,0.1577,0.1576,0.1577,0.1577,0.1576,0.1576,0.1573,0.1574,0.1579,0.1579,0.158,0.158,0,0.1592,0.1597,0.1585,0.1586,0.1587,0.1578,0.1579,0.1573,0.1575,0.1566,0.1565,0.1568,0.1561,0.1565,0.1558,0.156,0.1545,0.1548,0.1546,0.1547,0.1536,0.1537,0.1501,0.1496,0.153,0.1529,0.1529,0,0.1574,0.1566,0.1567,0.1564,0.1563,0.1557,0.1554,0.156,0.1557,0.1555,0.1548,0.1543,0.1538,0.1528,0.1529,0.1524,0.1526,0.1514,0.1526,0.1525,0.1526,0.1527,0.1526,0.1512,0.1511,0.1511,0.1511,0,0.1541,0.1544,0.154,0.1536,0.1533,0.153,0.1528,0.1525,0.1531,0.1527,0.1521,0.1517,0.1511,0.1505,0.1501,0.1501,0.1507,0.1507,0.1505,0.1502,0.1502,0.1502,0.154,0.1508,0.1508,0.1508,0.1508,0.1509,0.1517,0.151,0.1511,0.1506,0.1506,0.1504,0.1498,0.1501,0.1496,0.1492,0.1496,0.1488,0.1488,0.1483,0.1482,0.1476,0.1481,0.1477,0.1476,0.1475,0.1474,0.1503,0.1476,0.1476,0.1476,0.1476,0.1476,0,0.1485,0.1486,0.1481,0.1479,0.1475,0.1483,0.1481,0.1477,0.1471,0.1471,0.1467,0.146,0.1455,0.1457,0.1453,0.1448,0.1451,0.1446,0.1447,0.1446,0.1469,0.1472,0.1444,0.1444,0.1444,0.1444,0.1444,0.1444,0.1467,0.1457,0.1461,0.1451,0.1452,0.1446,0.1444,0.1443,0.1443,0.1435,0.1431,0.1433,0.1434,0.1429,0.1425,0.1426,0.1424,0.1419,0.142,0.1442,0.1445,0.1448,0.145,0.1418,0.1418,0.1398,0.1398,0.1398]}]]